FLOCK 2E'-12 (41578 NORAD) Tracking and Keplerian Element Data

This shows tracking and keplerian element data for the satellite.

Feedback or suggestion? Click here.




ElementValue
Catalog41578
NameFLOCK 2E'-12
Epoch Orbit9989
Epoch Day59.51962195
Epoch Year2018
RAAN119.7414
Inclination51.6066
Eccentricity0.0005837
Argument of Perigee20.9767
Mean Anonmoly339.3048
Mean Motion16.34000311
Decay Rate0.07518372
L11 41578U 98067KC 18059.51962195 .07518372 12317-4 10697-2 0 9992
L22 41578 51.6066 119.7414 0005837 20.9767 339.3048 16.34000311 99896

Live tracking and technical data element details for FLOCK 2E'-12 (NORAD 41578). FLOCK 2E'-12 can be tracked NOW for your location showing map with azimuth and elevation plus other details from your city location.

Track the satellite on the map from your city or location and see movement details for azimuth, elevation, latitude, longitude, range, height, and movement on the map or in text.







IsCatalogInMostPopularTable: catalog: 41578, numindb: 144
Update: records affected: 1



GetName: 41578 FLOCK 2E'-12

Hit Count: updated at: Sat, 15 Dec 2018 13:34:28 GMT